Regional Weather Roundup
Issued by NWS

Home | Current Version | Previous Version | Graphics & Text | Print | Product List | Glossary Off
Versions: 1 2 3 4 5 6 7 8 9 10 11 12 13 14 15 16 17 18 19 20 21 22 23 24 25 26 27 28 29 30 31 32 33 34 35 36 37 38 39 40 41 42 43 44 45 46 47 48 49 50

000
ASUS43 KLOT 140410
RWRIL

ILLINOIS REGIONAL WEATHER ROUNDUP
NATIONAL WEATHER SERVICE CHICAGO/ROMEOVILLE IL
1100 PM CDT SUN JUL 13 2014

NOTE: "FAIR" INDICATES FEW OR NO CLOUDS BELOW 12,000 FEET WITH NO
SIGNIFICANT WEATHER AND/OR OBSTRUCTIONS TO VISIBILITY.

* THESE STATIONS ARE NOT UNDER NWS QUALITY CONTROL. THEY ALSO MAY NOT
  REPORT WEATHER SUCH AS PRECIPITATION OR FOG.

ILZ001-002-007-009-015-016-024-140500-
NORTHWEST ILLINOIS

CITY           SKY/WX    TMP DP  RH WIND       PRES   REMARKS
MOLINE         CLEAR     67  64  90 CALM      29.92S
STERLING*      PTCLDY    68  64  88 CALM      29.93F
SAVANNA*       CLEAR     65  62  91 SE5       29.92S
$$

ILZ003-004-008-010-011-017-018-140500-
NORTH CENTRAL ILLINOIS

CITY           SKY/WX    TMP DP  RH WIND       PRES   REMARKS
ROCKFORD       PTCLDY    68  54  60 NW6       29.93S
FREEPORT*      CLEAR     61  56  85 CALM      29.96S
ROCHELLE*      PTCLDY    65  64  93 CALM      29.94S
DE KALB*       PTCLDY    66  62  86 NW5       29.93F
PERU*          CLOUDY    71  66  84 NW6       29.92F
$$

ILZ005-006-012>014-019>023-140500-
NORTHEAST ILLINOIS

CITY           SKY/WX    TMP DP  RH WIND       PRES   REMARKS
CHICAGO-OHARE  PTCLDY    74  59  59 NW13      29.90R
CHICAGO-MIDWAY MOCLDY    76  65  68 W9        29.90S
AURORA         PTCLDY    67  63  87 W6        29.92S
LANSING*       PTCLDY    71  64  79 SW5       29.91S
JOLIET*        PTCLDY    71  65  83 CALM      29.92S
WAUKEGAN       CLEAR     65  60  84 CALM      29.90R
DUPAGE AIRPORT CLEAR     71  62  73 NW12      29.92R
KANKAKEE*      CLOUDY    71  69  93 CALM      29.92F
WHEELING       CLEAR     75  53  46 NW10      29.91R
MORRIS*        PTCLDY    69  68  97 NW3       29.92S
ROMEOVILLE*    MOCLDY    69  67  92 W5        29.92S
NORTHERLY ISL    N/A     75  63  66 W8          N/A
$$

LMZ740>746-140500-
SOUTHERN LAKE MICHIGAN

STATION/POSITION SKY/WX   TEMP    WIND        PRES    VSBY  WAVE
                          AIR SEA DIR/SP/G                  HT/PER
                          (F)     (DEG/KT/KT) (MB)    (MI)  (FT/S)
SOUTHERN BUOY              66 65  340/  4/  4 1011.9R         1
WAUKEGAN HARBOR            72     350/  4/  7 1013.5S
HARRISON CRIB              76     260/ 13/ 14   N/A
BURNHAM HARBOR             75     290/  6/ 12   N/A
CALUMET HARBOR             76     240/  6/ 10 1013.2F
BURNS HARBOR               77     220/ 10/ 14 1012.9R
MICHIGAN CITY              77     200/ 15/ 16   N/A
$$

ILZ025>027-034>036-040-047-049-050-058-095>099-140500-
WEST-CENTRAL ILLINOIS

CITY           SKY/WX    TMP DP  RH WIND       PRES   REMARKS
QUINCY         CLEAR     73  68  84 CALM      29.93F
GALESBURG*     PTCLDY    68  65  89 CALM      29.93F
MACOMB*        CLEAR     69  66  92 CALM      29.95F
JACKSONVILLE*  PTCLDY    74  72  95 CALM      29.94S
PITTSFIELD*    PTCLDY    73  71  91 CALM      29.94S
$$

ILZ028>032-037-038-041>044-048-051>054-059>061-140500-
CENTRAL ILLINOIS

CITY           SKY/WX    TMP DP  RH WIND       PRES   REMARKS
PONTIAC        LGT RAIN  72  70  94 CALM      29.92F
BLOOMINGTON    PTCLDY    72  65  78 W5        29.94F
DECATUR        MOCLDY    72  68  87 CALM      29.93F
PEORIA         LGT RAIN  74  67  78 N7        29.93S
LACON*         LGT RAIN  71  68  89 SW3       29.92F
LINCOLN*       MOCLDY    71  67  88 CALM      29.90F
SPRINGFIELD    PTCLDY    73  70  90 N5        29.92F
TAYLORVILLE    PTCLDY    72  70  94 CALM      29.92F
$$

ILZ033-039-045-046-055>057-062-063-140500-
EAST-CENTRAL ILLINOIS

CITY           SKY/WX    TMP DP  RH WIND       PRES   REMARKS
CHAMPAIGN      MOCLDY    73  71  93 CALM      29.93F
RANTOUL*       MOCLDY    72  67  86 CALM      29.94F
MATTOON        MOCLDY    73  70  90 CALM      29.92F
PARIS*         MOCLDY    70  69  98 CALM      29.93F FOG
$$

ILZ079-100>102-140500-
SOUTHWEST ILLINOIS

CITY           SKY/WX    TMP DP  RH WIND       PRES   REMARKS
ALTON          CLOUDY    75  75 100 CALM      29.94R
BELLEVILLE     MOCLDY    74  73  99 W2        29.94R
CAHOKIA*       MOCLDY    75  72  90 S3        29.94R
SPARTA*        CLOUDY    72  70  94 CALM      29.96S THUNDER
$$

ILZ064>066-069>071-074>076-080>082-084>086-088>090-092>094-140500-
SOUTH-CENTRAL ILLINOIS

CITY           SKY/WX    TMP DP  RH WIND       PRES   REMARKS
CARBONDALE     CLOUDY    74  72  93 CALM      29.95R
CAIRO*         CLEAR     83  73  72 S5        29.93F HX  89
MARION         CLOUDY    73  72  94 W3        29.97R
MT. VERNON     CLOUDY    75  66  73 S7        29.95S
CENTRALIA*     LGT RAIN  74  68  79 SW9       29.95R
SALEM*         CLOUDY    81  75  81 SW5       29.94S HX  87
METROPOLIS*    PTCLDY    82  70  66 S3        29.94F HX  85
$$

ILZ067-068-072-073-078-083-087-091-140500-
SOUTHEAST ILLINOIS

CITY           SKY/WX    TMP DP  RH WIND       PRES   REMARKS
FLORA*         CLOUDY    77  74  91 CALM      29.94S
HARRISBURG*    CLOUDY    72  70  96 S7        29.96S
ROBINSON*      CLOUDY    75  74  96 CALM      29.93F
CARMI*         LGT RAIN  73  72  96 S5        29.94F
$$

ABBREVIATIONS USED IN REMARKS
   TC - TEMPERATURE IN CELSIUS
  WCI - WIND CHILL INDEX
   HX - HEAT INDEX
  VSB - VISIBILITY
$$




USA.gov is the U.S. government's official web portal to all federal, state and local government web resources and services.